Redwood Falls, MN

3:01 PM CST on November 21, 2019 (GMT -0600)
Redwood Falls Municipal

Weather History for KRWF - October, 2019

Change the Weather History Date:

Monday, October 21, 2019

  Actual Average Record
Temperature  
Mean Temperature 48 °F -  
Max Temperature 55 °F 58 °F 91 °F (1947)
Min Temperature 42 °F 37 °F 20 °F (1936)
Degree Days  
Heating Degree Days 16    
Moisture  
Dew Point 43 °F    
Average Humidity 92    
Maximum Humidity 100    
Minimum Humidity 57    
Precipitation  
Precipitation 1.07 in - - ()
Sea Level Pressure  
Sea Level Pressure 29.31 in    
Wind  
Wind Speed 12 mph ()    
Max Wind Speed 30 mph    
Max Gust Speed 50 mph    
Visibility 5.7 miles    
Events Rain    
Averages and records for this station are not official NWS values.
T = Trace of Precipitation, MM = Missing Value Source: Averaged Metar Reports

Daily Weather History Graph

Daily Weather History Graph

Search for Another Location

Airport or City:

Astronomy

Oct. 21, 2019 Rise Set
Actual Time 7:42 AM CDT 6:26 PM CDT
Civil Twilight 7:13 AM CDT 6:55 PM CDT
Nautical Twilight 6:39 AM CDT 7:29 PM CDT
Astronomical Twilight 6:05 AM CDT 8:03 PM CDT
Moon No Moon Rise 3:10 PM CDT
Length of Visible Light 11h 42m
Length of Day
10h 43m
Waning Gibbous, 48% of the Moon is Illuminated
Oct 21
Waning Gibbous
Oct 27
New
Nov 4
First Quarter
Nov 12
Full
Nov 19
Last Quarter

Hourly Weather History & Observations

Time (CDT) Temp. Windchill Dew Point Humidity Pressure Visibility Wind Dir Wind Speed Gust Speed Precip Events Conditions
12:53 AM 55.0 °F - 39.9 °F 57% 29.61 in 10.0 mi ESE 16.1 mph 25.3 mph 0.00 in   Overcast
1:53 AM 54.0 °F - 41.0 °F 62% 29.57 in 10.0 mi ESE 15.0 mph 27.6 mph 0.00 in Rain Light Rain
2:53 AM 54.0 °F - 42.1 °F 64% 29.54 in 10.0 mi East 10.4 mph 21.9 mph 0.00 in Rain Light Rain
3:29 AM 50.0 °F - 46.0 °F 86% 29.52 in 5.0 mi East 10.4 mph 23.0 mph 0.04 in Rain Rain
3:53 AM 50.0 °F - 46.0 °F 86% 29.49 in 5.0 mi East 8.1 mph - 0.07 in Rain Light Rain
4:53 AM 50.0 °F - 45.0 °F 83% 29.46 in 6.0 mi East 10.4 mph 21.9 mph 0.02 in Rain Rain
5:53 AM 48.9 °F - 46.0 °F 90% 29.44 in 9.0 mi East 8.1 mph - 0.06 in Rain Light Rain
6:44 AM 48.9 °F - 46.9 °F 93% 29.42 in 6.0 mi ENE 9.2 mph - 0.06 in Rain Light Rain
6:51 AM 48.2 °F - 46.4 °F 93% 29.41 in 6.0 mi East 9.2 mph - 0.06 in Rain Light Rain
6:53 AM 48.0 °F - 46.9 °F 96% 29.42 in 7.0 mi East 10.4 mph 17.3 mph 0.06 in Rain Light Rain
7:02 AM 48.0 °F - 46.9 °F 96% 29.41 in 7.0 mi East 10.4 mph 21.9 mph 0.00 in Rain Light Rain
7:53 AM 46.9 °F - 46.0 °F 97% 29.38 in 10.0 mi ENE 9.2 mph 18.4 mph 0.01 in Rain Light Rain
8:51 AM 46.4 °F 40.7 °F 46.4 °F 100% 29.35 in 2.5 mi ENE 12.7 mph 21.9 mph 0.11 in Rain Rain
8:53 AM 46.0 °F 39.9 °F 46.0 °F 100% 29.36 in 2.5 mi ENE 13.8 mph 20.7 mph 0.12 in Rain Rain
9:29 AM 46.0 °F 41.4 °F 46.0 °F 100% 29.34 in 2.0 mi ENE 9.2 mph 18.4 mph 0.11 in Rain Rain
9:53 AM 46.0 °F 42.5 °F 46.0 °F 100% 29.33 in 3.0 mi NE 6.9 mph - 0.16 in Rain Rain
10:53 AM 46.0 °F 40.6 °F 45.0 °F 96% 29.28 in 5.0 mi North 11.5 mph 21.9 mph 0.02 in Rain Light Rain
11:53 AM 45.0 °F 38.5 °F 44.1 °F 97% 29.24 in 5.0 mi North 13.8 mph 20.7 mph 0.02 in Rain Light Rain
12:53 PM 45.0 °F 39.7 °F 44.1 °F 97% 29.22 in 4.0 mi NNE 10.4 mph 21.9 mph 0.03 in Rain Light Rain
1:29 PM 45.0 °F 39.7 °F 44.1 °F 97% 29.18 in 2.5 mi North 10.4 mph 21.9 mph 0.02 in Rain Light Rain
1:49 PM 44.6 °F 39.2 °F 44.6 °F 100% 29.18 in 3.0 mi North 10.4 mph - 0.05 in Rain Rain
1:53 PM 45.0 °F 39.7 °F 44.1 °F 97% 29.18 in 4.0 mi North 10.4 mph - 0.05 in Rain Rain
2:00 PM 45.0 °F 40.6 °F 45.0 °F 100% 29.17 in 4.0 mi NNW 8.1 mph - 0.01 in Rain Light Rain
2:10 PM 46.0 °F 42.5 °F 45.0 °F 96% 29.17 in 6.0 mi North 6.9 mph - 0.01 in Rain Light Rain
2:53 PM 45.0 °F 39.3 °F 44.1 °F 97% 29.17 in 3.0 mi NNW 11.5 mph 19.6 mph 0.05 in Rain Rain
3:53 PM 44.1 °F 37.4 °F 42.1 °F 93% 29.18 in 4.0 mi NNW 13.8 mph 24.2 mph 0.11 in Rain Rain
4:13 PM 43.0 °F 35.1 °F 42.1 °F 97% 29.17 in 5.0 mi NNW 17.3 mph 29.9 mph 0.03 in Rain Rain
4:53 PM 43.0 °F 35.4 °F 41.0 °F 93% 29.19 in 5.0 mi NNW 16.1 mph 32.2 mph 0.08 in Rain Rain
5:01 PM 43.0 °F 35.1 °F 41.0 °F 93% 29.17 in 5.0 mi NNW 17.3 mph 29.9 mph 0.01 in Rain Light Rain
5:14 PM 43.0 °F 35.4 °F 41.0 °F 93% 29.18 in 5.0 mi NW 16.1 mph 35.7 mph 0.02 in Rain Rain
5:53 PM 42.1 °F 33.9 °F 39.9 °F 92% 29.20 in 7.0 mi NW 17.3 mph 41.4 mph 0.05 in Rain Light Rain
6:33 PM 42.1 °F 32.3 °F 39.9 °F 92% 29.19 in 5.0 mi NNW 24.2 mph 41.4 mph 0.04 in Rain Rain
6:53 PM 42.1 °F 32.6 °F 39.0 °F 89% 29.22 in 6.0 mi NW 23.0 mph 44.9 mph 0.06 in Rain Light Rain
7:53 PM 42.1 °F 33.3 °F 39.9 °F 92% 29.25 in 9.0 mi NNW 19.6 mph 42.6 mph 0.03 in Rain Light Rain
8:12 PM 42.1 °F 33.1 °F 39.9 °F 92% 29.24 in 8.0 mi NNW 20.7 mph 34.5 mph 0.01 in Rain Light Rain
8:43 PM 42.1 °F 33.1 °F 39.9 °F 92% 29.26 in 8.0 mi NNW 20.7 mph 46.0 mph 0.01 in Rain Light Rain
8:53 PM 42.1 °F 32.8 °F 39.9 °F 92% 29.29 in 6.0 mi NNW 21.9 mph 42.6 mph 0.01 in Rain Light Rain
9:53 PM 43.0 °F 32.5 °F 39.9 °F 89% 29.32 in 6.0 mi NNW 29.9 mph 49.5 mph 0.02 in Rain Light Rain
10:53 PM 43.0 °F 33.5 °F 39.9 °F 89% 29.35 in 6.0 mi NW 24.2 mph 43.7 mph 0.01 in Rain Light Rain
11:53 PM 42.1 °F 32.3 °F 39.9 °F 92% 29.39 in 6.0 mi NW 24.2 mph 44.9 mph 0.03 in Rain Light Rain